Regional Weather Roundup
Issued by NWS Wakefield, VA

Home | Current Version | Previous Version | Text Only | Print | Product List | Glossary Off
Versions: 1 2 3 4 5 6 7 8 9 10 11 12 13 14 15 16 17 18 19 20 21 22 23 24 25 26 27 28 29 30 31 32 33 34 35 36 37 38 39 40 41 42 43 44 45 46 47 48 49 50

000
ASUS41 KAKQ 171115
RWRAKQ

REGIONAL WEATHER ROUNDUP
NATIONAL WEATHER SERVICE WAKEFIELD VA
700 AM EDT TUE OCT 17 2017

Note: "fair" indicates few or no clouds below 12,000 feet with no
significant weather and/or obstructions to visibility. * = Denotes
station may not report precipitation (e.g., rain,snow,etc.),
thunder or fog.

VAZ042-051-052>054-056-171200-
NORTHERN VIRGINIA

CITY           SKY/WX    TMP DP  RH WIND       PRES   REMARKS
WASH NATIONAL  PTCLDY    47  37  68 N7        30.35R
DULLES         CLEAR     37  35  92 CALM      30.35R
FORT BELVOIR   CLEAR     40  37  91 CALM      30.35R
QUANTICO       PTCLDY    44  39  82 NW6       30.36R
FREDERICKSBRG* CLEAR     44  38  82 NW5       30.34R
STAFFORD*      PTCLDY    36  36 100 N6        30.39R
WARRENTON      PTCLDY    34  32  91 CALM      30.35R
CULPEPER*      CLEAR     38  35  89 CALM      30.36R
MANASSAS*      CLEAR     35  35 100 CALM      30.36R
LEESBURG*      CLEAR     41  37  87 CALM      30.36R
WINCHESTER     CLEAR     34  32  93 CALM      30.35R
FRONT ROYAL*   SUNNY     36  36 100 S3        30.34R
LURAY*         SUNNY     36  36 100 CALM      30.35R
$$

VAZ048-049-060>072-079>083-171200-
CENTRAL AND SOUTH CENTRAL VIRGINIA

CITY           SKY/WX    TMP DP  RH WIND       PRES   REMARKS
RICHMOND       PTCLDY    43  38  82 N9        30.32R
CHESTERFIELD*  NOT AVBL
PETERSBURG*    CLEAR     44  36  73 N7        30.32R
HANOVER        CLEAR     43  37  79 CALM      30.34R
TAPPAHANNOCK*  CLEAR    N/A N/A N/A CALM      30.32R
QUINTON*       FAIR      43  40  88 CALM      30.31R
CHARLOTTSVILLE CLEAR     41  38  89 CALM      30.35R
GORDONSVILLE*  SUNNY     38  37  97 CALM      30.35R
ORANGE*        CLEAR     39  36  87 CALM      30.35R
LOUISA*        CLEAR     36  34  93 CALM      30.34R
BUMPASS*       FAIR      46  37  73 N5        30.34R
FARMVILLE*     CLEAR     45  40  85 CALM      30.33R
CREWE*         FAIR      44  38  81 N3        30.33R
FORT PICKETT*  FAIR      42  40  93 N6        30.32R
CHASE CITY*    FAIR      44  36  73 N3        30.32S
CLARKSVILLE*   FAIR      46  36  66 N6        30.32R
SOUTH HILL*    CLEAR     40  38  93 N6        30.37R
LAWRENCEVILLE* FAIR      43  37  80 N6        30.30R
EMPORIA*       CLEAR     41  36  81 NW6       30.31S
$$

VAZ088>098-171200-
SOUTHEAST VIRGINIA

CITY           SKY/WX    TMP DP  RH WIND       PRES   REMARKS
NORFOLK        CLEAR     56  42  59 NE18      30.26R
VIRGINIA BEACH PTCLDY    54  44  69 N12       30.25R
NORFOLK NAVAL  NOT AVBL
WEST POINT*    CLEAR     43  40  88 NW3       30.33R
SALUDA*        FAIR      50  43  75 N10       30.30R
NEWPORT NEWS   CLEAR     50  43  77 NE7       30.29R
LANGLEY AFB    PTCLDY    54  45  71 NE15      30.28R
FORT EUSTIS    CLEAR     49  43  79 N5        30.27R
WILLIAMSBURG*  CLEAR     46  43  87 N3        30.31R
HR EXEC AP*    NOT AVBL
FRANKLIN*      CLEAR     44  40  85 N5        30.29R
US460-WAKEFLD  CLEAR     45  41  86 N5        30.30R
$$

VAZ020-022-025-037-045-171200-
WEST CENTRAL AND SOUTHWEST VIRGINIA

CITY           SKY/WX    TMP DP  RH WIND       PRES   REMARKS
STAUNTON*      CLEAR     33  32  98 CALM      30.37R
WAYNESBORO*    SUNNY     35  35  99 SW3       30.34R
HOT SPRINGS VA CLEAR     37  34  91 CALM      30.30R
LYNCHBURG      CLEAR     42  39  89 N5        30.34R
DANVILLE       CLEAR     39  39 100 CALM      30.33R
SOUTH BOSTON*  FAIR      42  40  93 N5        30.33R
MARTINSVILLE   CLEAR     35  34  98 CALM      30.37R
ROANOKE        CLEAR     41  39  93 CALM      30.36R
BLACKSBURG     CLEAR     36  36 100 CALM      30.37R
DUBLIN*        CLEAR     37  36  95 CALM      30.35R
MARION*        CLEAR     34  32  91 CALM      30.36S
HILLSVILLE*    CLEAR     38  32  78 CALM      30.32R
RICHLANDS*     FAIR      36  35  94 N3        30.35R
WISE*          CLEAR     39  37  93 CALM      30.35R
ABINGDON*      CLEAR     38  36  94 CALM      30.34S
$$

MDZ021>025-VAZ099-100-171200-
SOUTHERN MARYLAND AND THE DELMARVA PENINSULA

CITY           SKY/WX    TMP DP  RH WIND       PRES   REMARKS
PATUXENT RIVER CLEAR     49  38  65 NE14      30.32R
BAY BRIDGE APT CLEAR     46  37  71 NE7       30.33R
LEONARDTOWN    NOT AVBL
DOVER          CLEAR     39  34  81 NW7       30.31R
GEORGETOWN     CLEAR     42  35  76 NW6       30.31R
EASTON         CLEAR     41  36  81 N5        30.36R
CAMBRIDGE      CLEAR     45  37  76 N8G16     30.32R
SALISBURY      CLEAR     42  35  76 N8        30.30R
OCEAN CITY     CLEAR     45  37  73 N8        30.29R
WALLOPS ISLAND CLEAR     43  40  89 N8        30.30R
ACCOMACK*      CLEAR     46  40  82 N7        30.30R
$$

NCZ012>017-030>032-171200-
NORTH CENTRAL AND EASTERN NORTH CAROLINA

CITY           SKY/WX    TMP DP  RH WIND       PRES   REMARKS
ROANOKE RAPIDS FAIR      45  37  76 N8        30.28S
RALEIGH        PTCLDY    46  41  82 N5        30.30R
ELIZABETH CITY CLEAR     54  46  74 N16G22    30.24R
AHOSKIE*       CLEAR     45  40  83 N5        30.28R
EDENTON*       NOT AVBL
CURRITUCK*     PTCLDY    54  44  70 N6        30.25R
KILL DEVIL HLS MOCLDY    60  44  55 N10G20    30.20R
MANTEO         MOCLDY   N/A N/A N/A NE18G24   30.21R
CAPE HATTERAS  PTCLDY    62  48  60 NE17G31   30.17R
TARBORO*       NOT AVBL
GOLDSBORO      PTCLDY    49  40  69 N12       30.25R
WASHINGTON     PTCLDY    46  42  85 N9        30.26R
GREENVILLE     CLOUDY    45  41  87 N3        30.27R
NEW BERN       CLOUDY    50  45  83 N10       30.24R
WILMINGTON     CLOUDY    50  43  77 N8        30.22R
$$

VAZ048-171200-
ELSEWHERE

CITY           SKY/WX    TMP DP  RH WIND       PRES   REMARKS
HARRISBURG PA  CLEAR     40  37  89 CALM      30.34R
BALTIMORE      PTCLDY    39  37  92 CALM      30.34R
ANNAPOLIS      CLEAR     50  44  80 N8        30.34R
ANDREWS AFB    CLEAR     41  35  77 N6        30.33R
PHILADELPHIA   CLEAR     43  32  65 N8        30.33R
GREENSBORO     PTCLDY    44  40  85 N5        30.31R
ROCKY MOUNT    PTCLDY    47  40  76 N12       30.28R
$$

VAZ100-171200-
MARINE

STATION/POSITION TIME  TEMP    WIND        PRES    WAVE   SWELL
                       AIR SEA DIR/SP/G            HT/PER HT/PER
                 (UTC) (F)     (DEG/KT/KT) (MB)    (FT/S) (FT/S)
BRANDYWINE LGT   1042   49      20/ 23/ 30 1026.2R
CAPE MAY NJ      1048   47 65   30/  6/ 15 1025.5R
LEWES DE         1048   51 62   20/ 18/ 22 1025.8R
15NM E FENWICK I 1050   52 68  360/ 19/ 25 1024.9R   6/ 7   2/11
OCEAN-CITY-INLET 1048   51 67  360/ 13/ 16 1025.8R
WACHAPREAGUE VA  1048   46 65  350/  4/  7 1025.9R
THOMAS POINT MD  1100   51 68   10/ 17/ 22   N/A
COVE POINT MD    1048   50      50/ 16/ 20 1027.3R
SOLOMONS ISLAND  1048   50 70   40/  7/ 12 1026.4R
BISHOPS HEAD MD  1048   48 62   20/ 11/ 19 1026.7R
PINEY POINT MD   1048           40/  5/  7   N/A
CAMBRIDGE MD     1048   46 67              1027.6R
LEWISETTA VA     1048   52 65   40/ 11/ 16 1026.3R
RAPPAHANNOCK LGT 1048           20/ 24/ 28 1026.2R
YORK RVR RNG VA  1048   56      40/ 18/ 21 1025.9R
YORKTOWN VA      1048   54 71   20/ 11/ 15 1025.3R
DOMINION TERM VA 1048   55      30/  6/ 12 1025.3R
KIPTOPEKE VA     1048      69   30/  8/ 12   N/A
CAPE HENRY VA    1048   55      20/ 23/ 26   N/A
WILLOUBY STN VA  1042   56      40/ 20/ 25 1025.0R
S CRANEY ISL VA  1048   57      40/ 17/ 20 1024.5R
CAPE HENRY BUOY  1030      71                N/A     6/ 6   2/11
CAPE CHARLES BUO 1051      71                N/A     5/ 7
64NM E OF VA BCH 1050   60 68   20/ 23/ 27 1022.8R   9/ 8   2/11
DUCK PIER NC     1048   61 69   30/ 24/ 30 1022.7R
44100 DUCK FRF   1035      71                N/A     8/ 7   2/11
44056 DUCK FRF   1030      71                N/A     7/ 7   2/11
OREGON INLET NC  1042   61 69   30/ 17/ 24 1022.2R
HATTERAS NC      1048   62 71   40/ 18/ 27 1021.6R
DIAMOND SHLS NC  1050   66 81   30/ 27/ 33 1020.0R   8/ 8
CAPE LOOKOUT NC  1100   61      10/ 19/ 23 1021.5R
$$



USA.gov is the U.S. government's official web portal to all federal, state and local government web resources and services.